EHC05 EHRD-EHHA

Flight info

Callsign EHC05
Flight time 0h 31m
Altitude 1000
Route DCT
Aircraft EC35/M-SBGRY/L

Departure

Time 2026-04-26 09:21
Airport Rotterdam The Hague Airport (EHRD)

Arrival

Time 2026-04-26 09:53
Airport Amsterdam Heliport (EHHA)
Time Latitude Longitude Altitude Speed Heading
2026-04-26 09:03 51.95096 4.43420 -9 ft 0 kts 327°
2026-04-26 09:17 51.95096 4.43419 -9 ft 0 kts 327°
2026-04-26 09:18 51.95101 4.43411 5 ft 3 kts
2026-04-26 09:18 51.95137 4.43380 7 ft 15 kts 323°
2026-04-26 09:18 51.95184 4.43254 6 ft 9 kts 237°
2026-04-26 09:18 51.95160 4.43201 8 ft 4 kts 243°
2026-04-26 09:19 51.95132 4.43086 11 ft 16 kts 246°
2026-04-26 09:19 51.95101 4.43020 23 ft 1 kts 282°
2026-04-26 09:19 51.95107 4.43026 8 ft 1 kts 283°
2026-04-26 09:19 51.95108 4.43017 9 ft 2 kts 281°
2026-04-26 09:20 51.95147 4.42918 22 ft 21 kts 315°
2026-04-26 09:20 51.95265 4.42986 25 ft 37 kts 65°
2026-04-26 09:20 51.95483 4.43516 131 ft 68 kts 55°
2026-04-26 09:20 51.95896 4.43985 294 ft 81 kts 12°
2026-04-26 09:21 51.96430 4.43823 437 ft 90 kts 330°
2026-04-26 09:21 51.96831 4.42999 578 ft 97 kts 288°
2026-04-26 09:21 51.96819 4.41903 695 ft 102 kts 248°
2026-04-26 09:21 51.96451 4.40917 802 ft 106 kts 230°
2026-04-26 09:22 51.96041 4.39892 880 ft 109 kts 231°
2026-04-26 09:22 51.95647 4.38859 962 ft 112 kts 232°
2026-04-26 09:22 51.95270 4.37838 981 ft 113 kts 232°
2026-04-26 09:22 51.94869 4.36737 971 ft 113 kts 232°
2026-04-26 09:23 51.94474 4.35642 968 ft 112 kts 232°
2026-04-26 09:23 51.94081 4.34548 958 ft 112 kts 232°
2026-04-26 09:23 51.93692 4.33462 975 ft 112 kts 231°
2026-04-26 09:23 51.93325 4.32351 944 ft 115 kts 242°
2026-04-26 09:24 51.93240 4.31141 943 ft 120 kts 269°
2026-04-26 09:24 51.93474 4.29882 950 ft 123 kts 293°
2026-04-26 09:24 51.93975 4.28763 964 ft 121 kts 304°
2026-04-26 09:24 51.94318 4.28050 966 ft 119 kts 305°
2026-04-26 09:25 51.94382 4.27917 965 ft 118 kts 305°
2026-04-26 09:25 51.94851 4.26949 954 ft 116 kts 306°
2026-04-26 09:25 51.95353 4.25931 965 ft 115 kts 305°
2026-04-26 09:25 51.95850 4.24935 947 ft 117 kts 307°
2026-04-26 09:26 51.96371 4.23905 942 ft 128 kts 307°
2026-04-26 09:26 51.96980 4.22717 942 ft 144 kts 307°
2026-04-26 09:26 51.97633 4.21467 962 ft 145 kts 307°
2026-04-26 09:26 51.98293 4.20221 957 ft 146 kts 307°
2026-04-26 09:27 51.98969 4.18960 961 ft 147 kts 307°
2026-04-26 09:27 51.99642 4.17714 963 ft 147 kts 308°
2026-04-26 09:27 52.00345 4.16486 954 ft 149 kts 316°
2026-04-26 09:27 52.01260 4.15798 961 ft 145 kts 345°
2026-04-26 09:28 52.02245 4.15915 964 ft 140 kts 12°
2026-04-26 09:28 52.02888 4.16331 964 ft 137 kts 23°
2026-04-26 09:28 52.03664 4.17213 953 ft 136 kts 38°
2026-04-26 09:28 52.04373 4.18233 953 ft 136 kts 38°
2026-04-26 09:29 52.05079 4.19255 951 ft 136 kts 38°
2026-04-26 09:29 52.05786 4.20280 965 ft 137 kts 38°
2026-04-26 09:29 52.06477 4.21277 966 ft 136 kts 37°
2026-04-26 09:29 52.07201 4.22318 964 ft 135 kts 37°
2026-04-26 09:30 52.07908 4.23328 963 ft 136 kts 37°
2026-04-26 09:30 52.08660 4.24256 959 ft 136 kts 30°
2026-04-26 09:30 52.09458 4.25099 965 ft 136 kts 32°
2026-04-26 09:30 52.10202 4.26040 964 ft 137 kts 37°
2026-04-26 09:31 52.10884 4.27022 959 ft 136 kts 39°
2026-04-26 09:31 52.11650 4.28235 962 ft 136 kts 41°
2026-04-26 09:31 52.12306 4.29317 964 ft 135 kts 41°
2026-04-26 09:32 52.12980 4.30404 962 ft 135 kts 38°
2026-04-26 09:32 52.13699 4.31407 959 ft 136 kts 36°
2026-04-26 09:32 52.14412 4.32406 960 ft 136 kts 34°
2026-04-26 09:32 52.14877 4.32953 951 ft 137 kts 31°
2026-04-26 09:33 52.15921 4.34112 958 ft 137 kts 33°
2026-04-26 09:33 52.16425 4.34751 968 ft 137 kts 35°
2026-04-26 09:33 52.17180 4.35687 965 ft 136 kts 32°
2026-04-26 09:33 52.17951 4.36553 962 ft 136 kts 29°
2026-04-26 09:34 52.18086 4.36697 963 ft 136 kts 29°
2026-04-26 09:34 52.18628 4.37249 966 ft 136 kts 27°
2026-04-26 09:34 52.19697 4.38235 959 ft 137 kts 24°
2026-04-26 09:34 52.20273 4.38715 962 ft 137 kts 23°
2026-04-26 09:35 52.21122 4.39392 961 ft 138 kts 24°
2026-04-26 09:35 52.21935 4.40213 964 ft 137 kts 30°
2026-04-26 09:35 52.22703 4.41056 965 ft 137 kts 30°
2026-04-26 09:35 52.23498 4.41901 967 ft 136 kts 27°
2026-04-26 09:36 52.24321 4.42649 958 ft 138 kts 25°
2026-04-26 09:36 52.25161 4.43416 955 ft 138 kts 25°
2026-04-26 09:36 52.25999 4.44173 965 ft 137 kts 23°
2026-04-26 09:36 52.26883 4.44763 962 ft 138 kts 14°
2026-04-26 09:37 52.27734 4.45263 955 ft 139 kts 21°
2026-04-26 09:37 52.28588 4.45991 963 ft 137 kts 26°
2026-04-26 09:37 52.29417 4.46765 965 ft 137 kts 24°
2026-04-26 09:37 52.30280 4.47448 958 ft 138 kts 20°
2026-04-26 09:38 52.31158 4.48040 962 ft 137 kts 19°
2026-04-26 09:38 52.32035 4.48657 960 ft 137 kts 20°
2026-04-26 09:38 52.32899 4.49302 964 ft 137 kts 21°
2026-04-26 09:38 52.33693 4.49927 956 ft 137 kts 24°
2026-04-26 09:39 52.34128 4.50308 1039 ft 129 kts 25°
2026-04-26 09:39 52.34772 4.50721 976 ft 130 kts 10°
2026-04-26 09:39 52.35719 4.50852 960 ft 142 kts 12°
2026-04-26 09:39 52.36575 4.51533 1015 ft 134 kts 23°
2026-04-26 09:40 52.37404 4.52247 969 ft 136 kts 24°
2026-04-26 09:40 52.38246 4.52988 967 ft 139 kts 24°
2026-04-26 09:40 52.39138 4.53597 962 ft 138 kts 19°
2026-04-26 09:40 52.40032 4.54154 959 ft 137 kts 15°
2026-04-26 09:41 52.40931 4.54654 966 ft 138 kts 15°
2026-04-26 09:41 52.41834 4.55205 964 ft 138 kts 17°
2026-04-26 09:41 52.42744 4.55659 963 ft 138 kts 11°
2026-04-26 09:41 52.43700 4.55924 963 ft 139 kts
2026-04-26 09:42 52.44679 4.55841 967 ft 141 kts 347°
2026-04-26 09:42 52.45627 4.55484 964 ft 142 kts 346°
2026-04-26 09:42 52.46571 4.55015 969 ft 142 kts 322°
2026-04-26 09:42 52.46917 4.53579 968 ft 145 kts 257°
2026-04-26 09:43 52.46277 4.52457 963 ft 139 kts 189°
2026-04-26 09:43 52.45445 4.52960 965 ft 133 kts 121°
2026-04-26 09:43 52.45463 4.54377 962 ft 134 kts 53°
2026-04-26 09:43 52.45951 4.55685 945 ft 139 kts 55°
2026-04-26 09:44 52.46375 4.57092 898 ft 138 kts 67°
2026-04-26 09:44 52.46554 4.58629 777 ft 134 kts 77°
2026-04-26 09:44 52.46533 4.60047 697 ft 135 kts 92°
2026-04-26 09:44 52.46347 4.61557 666 ft 133 kts 89°
2026-04-26 09:45 52.46366 4.63070 617 ft 135 kts 84°
2026-04-26 09:45 52.46328 4.64617 580 ft 135 kts 88°
2026-04-26 09:45 52.46129 4.66127 526 ft 138 kts 108°
2026-04-26 09:45 52.45527 4.67354 483 ft 137 kts 127°
2026-04-26 09:46 52.44880 4.68465 429 ft 136 kts 125°
2026-04-26 09:46 52.44270 4.69676 411 ft 137 kts 122°
2026-04-26 09:46 52.43703 4.70925 400 ft 137 kts 119°
2026-04-26 09:46 52.43257 4.72290 392 ft 134 kts 103°
2026-04-26 09:47 52.43125 4.73792 383 ft 134 kts 90°
2026-04-26 09:47 52.42933 4.75304 388 ft 135 kts 100°
2026-04-26 09:47 52.42660 4.76770 378 ft 135 kts 99°
2026-04-26 09:47 52.42461 4.78249 379 ft 134 kts 93°
2026-04-26 09:48 52.42322 4.79770 376 ft 135 kts 94°
2026-04-26 09:48 52.42101 4.81271 382 ft 135 kts 99°
2026-04-26 09:48 52.41878 4.82761 377 ft 134 kts 94°
2026-04-26 09:48 52.41713 4.84262 369 ft 136 kts 92°
2026-04-26 09:49 52.41547 4.85799 374 ft 135 kts 92°
2026-04-26 09:49 52.40950 4.87012 414 ft 138 kts 135°
2026-04-26 09:49 52.40229 4.88024 392 ft 139 kts 128°
2026-04-26 09:49 52.39522 4.89127 377 ft 144 kts 135°
2026-04-26 09:50 52.38571 4.89510 381 ft 146 kts 176°
2026-04-26 09:50 52.37601 4.89157 390 ft 138 kts 164°
2026-04-26 09:50 52.37140 4.90286 379 ft 129 kts 75°
2026-04-26 09:50 52.37846 4.90940 373 ft 133 kts 345°
2026-04-26 09:51 52.38465 4.89809 358 ft 141 kts 306°
2026-04-26 09:51 52.39305 4.89005 386 ft 139 kts 339°
2026-04-26 09:51 52.40192 4.88537 516 ft 134 kts 330°
2026-04-26 09:51 52.40920 4.87523 563 ft 140 kts 304°
2026-04-26 09:52 52.41473 4.86201 575 ft 142 kts 296°
2026-04-26 09:52 52.41982 4.83084 446 ft 133 kts 273°
2026-04-26 09:52 52.42131 4.81833 378 ft 98 kts 278°
2026-04-26 09:53 52.41921 4.80800 231 ft 90 kts 204°
2026-04-26 09:53 52.41501 4.80509 113 ft 43 kts 258°
2026-04-26 09:53 52.41437 4.80449 21 ft 4 kts 294°
2026-04-26 09:53 52.41440 4.80429 8 ft 1 kts 287°
2026-04-26 09:54 52.41452 4.80432 10 ft 5 kts 283°
2026-04-26 09:54 52.41458 4.80433 6 ft 0 kts 280°